Beaver, WV

5:20 PM EDT on August 28, 2016 (GMT -0400)
Raleigh County Memorial

Weather History for KBKW - January, 2014

Change the Weather History Date:

Thursday, January 16, 2014

  Actual Average Record
Temperature  
Mean Temperature 25 °F 31 °F  
Max Temperature 33 °F 39 °F 69 °F (1932)
Min Temperature 17 °F 23 °F -15 °F (1972)
Degree Days  
Heating Degree Days 40 34  
Month to date heating degree days 554 544  
Since 1 July heating degree days 2592 2637  
Cooling Degree Days 0 0  
Month to date cooling degree days 0 0  
Year to date cooling degree days 0 0  
Moisture  
Dew Point 13 °F    
Average Humidity 58    
Maximum Humidity 74    
Minimum Humidity 41    
Precipitation  
Precipitation T in 0.10 in 1.14 in (1907)
Month to date precipitation 1.34 1.47  
Year to date precipitation 1.34 1.47  
Snow  
Snow T in - - ()
Month to date snowfall 3.9  
Since 1 September snowfall 17.2  
Snow Depth 2.00 in    
Sea Level Pressure  
Sea Level Pressure 29.97 in    
Wind  
Wind Speed 7 mph (WSW)    
Max Wind Speed 21 mph    
Max Gust Speed 27 mph    
Visibility 10 miles    
Events Snow    
T = Trace of Precipitation, MM = Missing Value Source: NWS Daily Summary

Daily Weather History Graph

Daily Weather History Graph

Search for Another Location

Airport or City:

Trip Planner

Search our weather history database for the weather conditions in past years. The results will help you decide how hot, cold, wet, or windy it might be!

Date:

Astronomy

Jan. 16, 2014 Rise Set
Actual Time 7:38 AM EST 5:30 PM EST
Civil Twilight 7:09 AM EST 5:59 PM EST
Nautical Twilight 6:37 AM EST 6:31 PM EST
Astronomical Twilight 6:06 AM EST 7:02 PM EST
Moon 6:19 PM EST (1/16) 7:32 AM EST (1/16)
Length of Visible Light 10h 49m
Length of Day
9h 52m
Full, 100% of the Moon is Illuminated
Jan 16
Full
Jan 24
Last Quarter
Jan 30
New
Feb 6
First Quarter
Feb 14
Full

Hourly Weather History & Observations

Time (EST) Temp. Windchill Dew Point Humidity Pressure Visibility Wind Dir Wind Speed Gust Speed Precip Events Conditions
12:37 AM 19.9 °F 13.4 °F 12.0 °F 71% 29.93 in 10.0 mi NNW 4.6 mph - N/A   Mostly Cloudy
12:51 AM 19.9 °F 11.1 °F 12.0 °F 71% 30.03 in 10.0 mi NNW 6.9 mph - N/A   Mostly Cloudy
1:51 AM 19.9 °F - 12.9 °F 74% 30.03 in 10.0 mi Calm Calm - N/A   Overcast
2:51 AM 19.9 °F 14.9 °F 12.0 °F 71% 30.03 in 10.0 mi NW 3.5 mph - N/A   Overcast
3:27 AM 19.0 °F 9.0 °F 10.9 °F 71% 29.92 in 10.0 mi WNW 8.1 mph - N/A   Scattered Clouds
3:51 AM 19.0 °F 12.3 °F 10.9 °F 71% 30.03 in 10.0 mi WNW 4.6 mph - N/A   Mostly Cloudy
4:08 AM 18.0 °F 9.8 °F 10.0 °F 71% 29.92 in 10.0 mi WNW 5.8 mph - N/A   Scattered Clouds
4:47 AM 17.6 °F 10.7 °F 10.4 °F 73% 29.91 in 10.0 mi WNW 4.6 mph - N/A   Mostly Cloudy
4:51 AM 18.0 °F 11.1 °F 10.9 °F 74% 30.03 in 10.0 mi West 4.6 mph - N/A   Mostly Cloudy
5:51 AM 18.0 °F 11.1 °F 10.0 °F 71% 30.03 in 10.0 mi WSW 4.6 mph - N/A   Overcast
6:51 AM 18.0 °F 12.7 °F 10.0 °F 71% 30.04 in 10.0 mi SW 3.5 mph - N/A   Overcast
7:51 AM 19.0 °F 9.0 °F 10.0 °F 68% 30.05 in 10.0 mi West 8.1 mph - N/A   Overcast
8:51 AM 19.0 °F 10.0 °F 10.9 °F 71% 30.06 in 10.0 mi Variable 6.9 mph - N/A   Overcast
9:51 AM 18.0 °F 8.7 °F 10.9 °F 74% 30.08 in 10.0 mi SW 6.9 mph - N/A   Overcast
10:28 AM 19.9 °F 9.3 °F 12.0 °F 71% 29.93 in 10.0 mi SSW 9.2 mph - N/A   Scattered Clouds
10:51 AM 21.0 °F 13.4 °F 12.0 °F 68% 30.05 in 10.0 mi SW 5.8 mph - N/A   Clear
11:51 AM 25.0 °F 18.1 °F 12.9 °F 60% 30.00 in 10.0 mi SW 5.8 mph - N/A   Clear
12:51 PM 27.0 °F 21.6 °F 14.0 °F 58% 29.94 in 10.0 mi Variable 4.6 mph - N/A   Clear
1:51 PM 28.9 °F 21.9 °F 14.0 °F 54% 29.91 in 10.0 mi SW 6.9 mph - N/A   Clear
2:51 PM 30.9 °F 23.5 °F 14.0 °F 50% 29.91 in 10.0 mi West 8.1 mph - N/A   Clear
3:51 PM 32.0 °F 24.8 °F 12.9 °F 45% 29.91 in 10.0 mi WSW 8.1 mph - N/A   Overcast
4:51 PM 30.9 °F 26.2 °F 12.9 °F 47% 29.91 in 10.0 mi South 4.6 mph - N/A   Overcast
5:51 PM 32.0 °F 26.4 °F 12.9 °F 45% 29.91 in 10.0 mi South 5.8 mph - N/A   Overcast
6:51 PM 32.0 °F 25.6 °F 12.9 °F 45% 29.92 in 10.0 mi South 6.9 mph - N/A   Overcast
7:51 PM 32.0 °F 25.6 °F 15.1 °F 50% 29.91 in 10.0 mi South 6.9 mph - N/A   Overcast
8:51 PM 33.1 °F 24.4 °F 12.0 °F 42% 29.93 in 10.0 mi SSW 11.5 mph - N/A   Overcast
9:51 PM 32.0 °F 21.2 °F 14.0 °F 48% 29.96 in 10.0 mi SW 16.1 mph 27.6 mph N/A   Overcast
10:51 PM 30.9 °F 21.2 °F 19.0 °F 61% 29.96 in 10.0 mi SSW 12.7 mph 21.9 mph 0.00 in   Overcast
11:51 PM 30.0 °F 20.0 °F 21.9 °F 72% 29.95 in 3.0 mi SW 12.7 mph 19.6 mph 0.00 in Snow Light Snow
11:59 PM 30.0 °F 19.1 °F 21.9 °F 72% 29.86 in 2.5 mi WSW 15.0 mph 23.0 mph 0.00 in Snow Light Snow